User: anonymous   Login
Location: Unspecified
(0.0000°N, 0.0000°E)
Time: 03:47:20
(UTC+00:00)
Language:

PACE - Orbit

View from above orbital plane
View from above orbital plane
View from above satellite
View from above satellite

Ground track
Ground track

The orbit data is extracted from the following two-line orbital elements,

1 40022U 14033N   24111.79222726  .00011888  00000-0  10490-2 0  9997
2 40022  98.0364  68.8351 0011521   6.4472 353.6895 14.96510067534644
Epoch (UTC): 20 April 2024 19:00:48
Eccentricity: 0.0011521
inclination: 98.0364°
perigee height: 569 km
apogee height: 586 km
right ascension of ascending node: 68.8351°
argument of perigee: 6.4472°
revolutions per day: 14.96510067
mean anomaly at epoch: 353.6895°
orbit number at epoch: 53464

The dashed part of the orbit path shows where the satellite is in the earth's shadow,  

DLR